Location: Nianha
(10.8000°N, 4.6333°W)
Time: 04:43:56
(UTC+00:00)

Cosmos 1408 Rocket - Pass Details

Date: 14 November 2019
Orbit: 600 x 631 km, 82.6° (Epoch: 18 January)

Event Time Altitude Azimuth Distance (km) Brightness Sun altitude
Rises 05:26:51 0° 175° (S) 2,841 7.3 -11.8°
Reaches altitude 10° 05:29:06 10° 170° (S) 1,937 6.5 -11.3°
Maximum altitude 05:33:16 53° 93° (E) 741 4.4 -10.3°
Drops below altitude 10° 05:37:26 10° 17° (NNE) 1,936 6.1 -9.3°
Sets 05:39:40 0° 12° (NNE) 2,839 6.9 -8.8°
